User: anonymous   Login
Location: Unspecified
(0.0000°N, 0.0000°E)
Time: 05:23:14
(UTC+00:00)
Language:

Vanguard 3 - Orbit

View from above orbital plane
View from above orbital plane
View from above satellite
View from above satellite

Ground track
Ground track

The orbit data is extracted from the following two-line orbital elements,

1 00020U 59007A   15089.13010670  .00002796  00000-0  11418-2 0  9995
2 00020 033.3518 130.0462 1670620 239.2152 103.3482 11.54523588 10092
Epoch (UTC): 30 March 2015 03:07:21
Eccentricity: 0.1670620
inclination: 33.3518°
perigee height: 509 km
apogee height: 3272 km
right ascension of ascending node: 130.0462°
argument of perigee: 239.2152°
revolutions per day: 11.54523588
mean anomaly at epoch: 103.3482°
orbit number at epoch: 1009

The dashed part of the orbit path shows where the satellite is in the earth's shadow,  

DLR